Regional Weather Roundup
Issued by NWS Northern Indiana

Home | Current Version | Previous Version | Text Only | Print | Product List | Glossary Off
Versions: 1 2 3 4 5 6 7 8 9 10 11 12 13 14 15 16 17 18 19 20 21 22 23 24 25 26 27 28 29 30 31 32 33 34 35 36 37 38 39 40 41 42 43 44 45 46 47 48 49 50

345
ASUS43 KIWX 141510
RWRIWX

KIWX WEATHER ROUNDUP
NATIONAL WEATHER SERVICE NORTHERN INDIANA
1000 AM EST SUN FEB 14 2016

NOTE: "FAIR" INDICATES FEW OR NO CLOUDS BELOW 12,000 FEET WITH NO
SIGNIFICANT WEATHER AND/OR OBSTRUCTIONS TO VISIBILITY.

* THESE STATIONS ARE NOT UNDER NWS QUALITY CONTROL. THEY ALSO MAY NOT
  REPORT WEATHER SUCH AS PRECIPITATION OR FOG.

INZ001>027-141600-
NORTHERN INDIANA

CITY           SKY/WX    TMP DP  RH WIND       PRES   REMARKS
GARY*          CLOUDY    16   1  53 SE14      30.30F WCI   1
VALPARAISO     CLOUDY    13   5  70 E16       30.30F WCI  -3
MICHIGAN CITY* SUNNY     12   3  67 SE10      30.35F WCI  -1
LAPORTE*       CLOUDY    13   4  69 SE15      30.34F WCI  -3
KNOX*          CLOUDY    14   3  62 SE16      30.34F WCI  -2
SOUTH BEND     CLOUDY    10   2  69 SE16      30.37F WCI  -7
ELKHART*       CLOUDY    12   1  62 MISG      30.39F
GOSHEN         SUNNY     11   2  67 SE9       30.39F WCI  -2
MONTICELLO*    CLOUDY    15   0  50 SE13G21   30.32F WCI   1
LOGANSPORT*    CLOUDY    16   1  53 SE17      30.35F WCI   0
ROCHESTER*     CLOUDY    14   1  57 SE12      30.37F WCI   0
WARSAW*        CLOUDY    14   3  62 SE10G16   30.38F WCI   1
ANGOLA*        SUNNY      9   1  72 SE9       30.39F WCI  -5
FORT WAYNE     PTSUNNY   14   5  67 SE12      30.42F WCI   0
HUNTINGTON*    SUNNY     12  -1  55 SE12G18   30.40F WCI  -2
PERU/GRISSOM   CLOUDY    14   5  68 SE17      30.32F WCI  -3
MARION*        CLOUDY    12  -2  53 SE13      30.37F WCI  -3

$$
INZ028>050-141600-
CENTRAL INDIANA

CITY           SKY/WX    TMP DP  RH WIND       PRES   REMARKS
LAFAYETTE      CLOUDY    17   5  59 SE15      30.30F WCI   2
KOKOMO*        CLOUDY    14   3  62 SE17      30.35F WCI  -3
MUNCIE*        CLOUDY    14   3  61 SE10      30.37F WCI   1
INDIANAPOLIS   FLURRIES  16   8  71 SE18      30.32F WCI   0

$$
MIZ043>046-050>051-056>058-064>065-071>073-077>080-141600-
SOUTHWEST LOWER MICHIGAN

CITY           SKY/WX    TMP DP  RH WIND       PRES   REMARKS
BATTLE CREEK   CLOUDY    10  -1  61 S12       30.40F WCI  -5
BENTON HARBOR  MOSUNNY   12   3  67 SE13      30.38F WCI  -3
COLDWATER*     CLOUDY    11   1  64 SE8       30.40F WCI  -1
HILLSDALE*     CLOUDY    11   1  63 SE9       30.38F WCI  -2
HOLLAND        CLOUDY    10  -2  58 SE12      30.40F WCI  -5
GRAND RAPIDS   MOSUNNY   13   2  61 S13       30.40F WCI  -2
KALAMAZOO      CLOUDY     9  -1  64 SE6       30.40F WCI  -1
STURGIS*       CLOUDY    10   0  64 SE12      30.39F WCI  -5
THREE RIVERS*  FAIR      11   3  69 SE10      30.41F WCI  -2

$$
OHZ001>008-015>018-024>025-141600-
NORTHWEST OHIO

CITY           SKY/WX    TMP DP  RH WIND       PRES   REMARKS
DEFIANCE       SUNNY     15   3  59 VRB7      30.45F WCI   5
FINDLAY        SUNNY     13   6  74 SE9       30.44F WCI   1
TOLEDO EXPRESS SUNNY     13   4  67 S8        30.46F WCI   2
TOLEDO METCALF SUNNY     15   6  67 S13       30.48F WCI   1
LIMA           SUNNY     13   6  74 S12       30.41F WCI  -1

$$
AND FOR LAKE MICHIGAN COASTAL AND OPEN LAKE BUOY OBSERVATIONS

STATION/POSITION TEMP    WIND        PRES    VSBY  WAVE
                 AIR SEA DIR/SP/G                  HT/PER
                 (F)     (DEG/KT/KT) (MB)    (MI)  (FT/S)
CALUMET HARBOR    14     120/ 13/ 17 1026.8F
MICHIGAN CITY     11     100/ 10/ 13   N/A
BURNS HARBOR      13     130/  7/ 21 1028.8F
SAINT JOSEPH      14     120/  2/ 10 1029.1F

$$
&&




USA.gov is the U.S. government's official web portal to all federal, state and local government web resources and services.